Terminal Aerodrome Forecast
Issued by NWS Boston, MA

Home | Current Version | Previous Version | Text Only | Print | Product List | Glossary On
Versions: 1 2 3 4 5 6 7 8 9 10 11 12 13 14 15 16 17 18 19 20 21 22 23 24 25 26 27 28 29 30 31 32 33 34 35 36 37 38 39 40 41 42 43 44 45 46 47 48 49 50
000
FTUS41 KBOX 272032 AAA
TAFORH
TAF AMD
KORH 272032Z 2721/2818 02004KT 1/4SM FG VV002
     FM272200 VRB03KT 1/2SM FG BKN003
     FM272300 VRB03KT 1/4SM -DZ FG VV002
     FM281400 10004KT 1/2SM FG VCSH OVC003=

USA.gov is the U.S. government's official web portal to all federal, state and local government web resources and services.